Location: Finkenwalde
(53.3770°N, 14.6418°E)
Time: 08:48:06
(UTC+00:00)

Cosmos 1943 Rocket - Pass Details

Date: 05 February 2023
Orbit: 811 x 844 km, 71.0° (Epoch: 19 March)

Event Time Altitude Azimuth Distance (km) Brightness Sun altitude
Rises 18:12:45 0° 327° (NNW) 3,416 5.8 -21.2°
Reaches altitude 10° 18:15:27 10° 337° (NNW) 2,478 4.9 -21.6°
Maximum altitude 18:20:37 34° 42° (NE) 1,363 2.9 -22.3°
Enters shadow 18:20:39 34° 43° (NE) 1,363 2.9 -22.3°
